Regional Weather Roundup
Issued by NWS Sioux Falls, SD

Home | Current Version | Previous Version | Text Only | Print | Product List | Glossary On
Versions: 1 2 3 4 5 6 7 8 9 10 11 12 13 14 15 16 17 18 19 20 21 22 23 24 25 26 27 28 29 30 31 32 33 34 35 36 37 38 39 40 41 42 43 44 45 46 47 48 49 50
000
ASUS43 KFSD 232310
RWRFSD

WEATHER ROUNDUP FOR SE SOUTH DAKOTA/SW MINNESOTA/NW IOWA
NATIONAL WEATHER SERVICE SIOUX FALLS SD
500 PM CST FRI FEB 23 2018

NOTE: "FAIR" INDICATES FEW OR NO CLOUDS BELOW 12,000 FEET WITH NO
SIGNIFICANT WEATHER AND OR OBSTRUCTIONS TO VISIBILITY.


SDZ038>040-050-052>070-240000-
SOUTHEAST SOUTH DAKOTA

CITY           SKY/WX    TMP DP  RH WIND       PRES   REMARKS
BROOKINGS      CLOUDY    20  16  84 W9        30.26R WCI   9
CHAMBERLAIN    SUNNY     17  10  75 CALM      30.27S
HURON          SUNNY     17  10  74 SW6       30.29R WCI   9
MADISON        CLOUDY    18  18 100 W10       30.26R WCI   6
MITCHELL       SUNNY     18  11  74 W8        30.31R WCI   8
SIOUX FALLS    CLOUDY    20  16  84 SW6       30.30R WCI  12
WINNER         FAIR      20   8  60 CALM      30.24S
YANKTON        SUNNY     22  15  75 NW6       30.31S WCI  14
$$

MNZ071-072-080-081-089-090-097-098-240000-
SOUTHWEST MINNESOTA

CITY           SKY/WX    TMP DP  RH WIND       PRES   REMARKS
FAIRMONT       CLEAR     25  19  78 W9        30.28R WCI  15
JACKSON        CLOUDY    27  21  80 W12       30.27R WCI  16
LUVERNE        CLOUDY    21  18  86 SW8       30.29R WCI  12
MARSHALL       CLEAR     23  17  78 SW7       30.27R WCI  15
MONTEVIDEO     CLOUDY    25  18  74 NW8       30.27R WCI  16
PIPESTONE      CLOUDY    18  16  93 W7        30.25R WCI   8
REDWOOD FALLS  CLOUDY    24  20  84 W9        30.26S WCI  14
TRACY          CLEAR     25  20  83 W5        30.25S WCI  19
WORTHINGTON    PTSUNNY   24  19  81 W10       30.27R WCI  14
$$

IAZ001>003-012>014-020>022-031-032-NEZ013-014-SDZ071-240000-
NORTHWEST IOWA

CITY           SKY/WX    TMP DP  RH WIND       PRES   REMARKS
CHEROKEE       CLOUDY    22  21  94 NW7       30.31R WCI  14
DENISON        CLOUDY    21  21 100 NW7       30.31S WCI  13
ESTHERVILLE    MOCLDY    23  18  81 W12       30.27R WCI  12
LE MARS        CLOUDY    21  19  93 NW9       30.31S WCI  11
ORANGE CITY    CLOUDY    21  19  93 NW10      30.29S WCI  10
SHELDON        CLOUDY    21  21 100 W13       30.27S WCI   9
SIOUX CITY     CLOUDY    22  18  85 N8        30.32S WCI  12
SPENCER        CLOUDY    25  20  81 W12       30.28R WCI  14
STORM LAKE     CLOUDY    21  19  93 NW10      30.28  WCI  10
$$

ABBREVIATIONS USED IN REMARKS
   TC - TEMPERATURE IN CELSIUS
  WCI - WIND CHILL INDEX
   HX - HEAT INDEX
  VSB - VISIBILITY





USA.gov is the U.S. government's official web portal to all federal, state and local government web resources and services.